Weather History for Elefsis, Greece

Change the Weather History Date:

Thursday, August 29, 2013

  Actual Average Record
Temperature  
Mean Temperature 86 °F -  
Max Temperature 96 °F 81 °F 98 °F (2003)
Min Temperature 77 °F 64 °F 64 °F (1999)
Cooling Degree Days 22    
Growing Degree Days 36 (Base 50)    
Moisture  
Dew Point 58 °F    
Average Humidity 40    
Maximum Humidity 65    
Minimum Humidity 20    
Precipitation  
Precipitation 0.00 in - - ()
Sea Level Pressure  
Sea Level Pressure 29.86 in    
Wind  
Wind Speed 5 mph ()    
Max Wind Speed 14 mph    
Max Gust Speed -    
Visibility 6.2 miles    
Events      
Averages and records for this station are not official NWS values.
T = Trace of Precipitation, MM = Missing Value Source: Averaged Metar Reports

Daily Weather History Graph

Daily Weather History Graph

Search for Another Location

Airport:

Trip Planner

Search our weather history database for the weather conditions in past years. The results will help you decide how hot, cold, wet, or windy it might be!

Date:

Astronomy

Aug. 29, 2013 Rise Set
Actual Time 6:52 AM EEST 7:59 PM EEST
Civil Twilight 6:25 AM EEST 8:26 PM EEST
Nautical Twilight 5:53 AM EEST 8:59 PM EEST
Astronomical Twilight 5:19 AM EEST 9:32 PM EEST
Moon 12:33 AM EEST (8/29) 3:10 PM EEST (8/29)
Length of Visible Light 14h 01m
Length of Day
13h 06m
Last Quarter, 41% of the Moon is Illuminated
Aug 29
Last Quarter
Sep 5
New
Sep 12
First Quarter
Sep 19
Full
Sep 27
Last Quarter

Hourly Weather History & Observations

Time (EEST) Temp. Heat Index Dew Point Humidity Pressure Visibility Wind Dir Wind Speed Gust Speed Precip Events Conditions
12:50 AM 84.2 °F 83.5 °F 57.2 °F 40% 29.83 in - North 4.6 mph - N/A   Clear
1:50 AM 82.4 °F 82.9 °F 60.8 °F 48% 29.83 in - North 5.8 mph - N/A   Clear
2:50 AM 80.6 °F 82.3 °F 64.4 °F 58% 29.83 in - WNW 4.6 mph - N/A   Clear
3:50 AM 80.6 °F 81.8 °F 62.6 °F 54% 29.83 in - North 4.6 mph - N/A   Clear
4:50 AM 80.6 °F 81.8 °F 62.6 °F 54% 29.83 in - Calm Calm - N/A   Clear
5:50 AM 80.6 °F 81.5 °F 60.8 °F 51% 29.83 in - Calm Calm - N/A   Clear
6:20 AM 77.0 °F - 60.8 °F 57% 29.86 in - Calm Calm - N/A   Clear
6:50 AM 80.6 °F 81.8 °F 62.6 °F 54% 29.86 in - NW 4.6 mph - N/A   Clear
7:20 AM 80.6 °F 81.8 °F 62.6 °F 54% 29.86 in - NW 8.1 mph - N/A   Clear
7:50 AM 80.6 °F 81.8 °F 62.6 °F 54% 29.89 in - Variable 3.5 mph - N/A   Clear
8:20 AM 84.2 °F 84.4 °F 60.8 °F 45% 29.89 in - Variable 3.5 mph - N/A   Clear
8:50 AM 86.0 °F 85.4 °F 59.0 °F 40% 29.89 in - NW 6.9 mph - N/A   Clear
9:20 AM 87.8 °F 86.5 °F 57.2 °F 35% 29.89 in - NW 4.6 mph - N/A   Clear
9:50 AM 86.0 °F 86.6 °F 62.6 °F 45% 29.89 in - Calm Calm - N/A   Clear
10:20 AM 91.4 °F 89.1 °F 53.6 °F 28% 29.89 in - NNW 6.9 mph - N/A   Clear
10:50 AM 91.4 °F 89.1 °F 53.6 °F 28% 29.89 in - North 9.2 mph - N/A   Clear
11:20 AM 91.4 °F - 51.8 °F 26% 29.89 in - NNW 9.2 mph - N/A   Clear
11:50 AM 93.2 °F - 51.8 °F 24% 29.89 in - North 6.9 mph - N/A   Clear
12:20 PM 93.2 °F - 50.0 °F 23% 29.89 in - North 8.1 mph - N/A   Clear
12:50 PM 95.0 °F - 48.2 °F 20% 29.86 in 6.2 mi North 4.6 mph - N/A   Partly Cloudy
1:20 PM 95.0 °F - 48.2 °F 20% 29.86 in 6.2 mi Calm Calm - N/A   Partly Cloudy
1:50 PM 96.8 °F - 50.0 °F 20% 29.86 in 6.2 mi North 6.9 mph - N/A   Partly Cloudy
2:20 PM 96.8 °F - 51.8 °F 22% 29.86 in 6.2 mi SSW 10.4 mph - N/A   Partly Cloudy
2:50 PM 95.0 °F - 51.8 °F 23% 29.83 in 6.2 mi SSW 13.8 mph - N/A   Partly Cloudy
3:20 PM 96.8 °F - 50.0 °F 20% 29.83 in 6.2 mi South 12.7 mph - N/A   Partly Cloudy
3:50 PM 96.8 °F - 50.0 °F 20% 29.83 in 6.2 mi SSW 11.5 mph - N/A   Partly Cloudy
4:20 PM 96.8 °F - 50.0 °F 20% 29.83 in 6.2 mi SSW 11.5 mph - N/A   Partly Cloudy
4:50 PM 95.0 °F - 50.0 °F 22% 29.83 in 6.2 mi SSW 9.2 mph - N/A   Partly Cloudy
5:20 PM 91.4 °F 89.9 °F 57.2 °F 31% 29.83 in 6.2 mi SSW 9.2 mph - N/A   Partly Cloudy
5:50 PM 91.4 °F 89.9 °F 57.2 °F 31% 29.83 in 6.2 mi South 13.8 mph - N/A   Partly Cloudy
6:20 PM 89.6 °F 89.5 °F 60.8 °F 38% 29.83 in 6.2 mi South 12.7 mph - N/A   Partly Cloudy
6:50 PM 87.8 °F 88.5 °F 62.6 °F 43% 29.83 in 6.2 mi South 11.5 mph - N/A   Partly Cloudy
7:20 PM 86.0 °F 86.6 °F 62.6 °F 45% 29.86 in 6.2 mi South 10.4 mph - N/A   Partly Cloudy
7:50 PM 84.2 °F 84.4 °F 60.8 °F 45% 29.86 in - SSE 5.8 mph - N/A   Clear
8:20 PM 84.2 °F 85.0 °F 62.6 °F 48% 29.86 in - South 6.9 mph - N/A   Clear
8:50 PM 82.4 °F 83.4 °F 62.6 °F 51% 29.89 in - SW 4.6 mph - N/A   Clear
9:20 PM 82.4 °F 83.4 °F 62.6 °F 51% 29.89 in - SW 4.6 mph - N/A   Clear
9:50 PM 82.4 °F 83.9 °F 64.4 °F 54% 29.89 in - WSW 3.5 mph - N/A   Clear
10:20 PM 80.6 °F 82.7 °F 66.2 °F 61% 29.89 in - Calm Calm - N/A   Clear
10:50 PM 78.8 °F - 66.2 °F 65% 29.89 in - Calm Calm - N/A   Clear
11:20 PM 78.8 °F - 60.8 °F 54% 29.89 in - North 3.5 mph - N/A   Clear
11:50 PM 78.8 °F - 60.8 °F 54% 29.89 in - Calm Calm - N/A   Clear